User: anonymous   Login
Location: Dittelspoint
(48.7198°N, 10.7214°E)
Time: 21:16:56
(UTC+00:00)
Language:

Cosmos 962 Rocket - Orbit

View from above orbital plane
View from above orbital plane
View from above satellite
View from above satellite

Ground track
Ground track

The orbit data is extracted from the following two-line orbital elements,

1 10461U 77107B   20184.82128826 +.00000032 +00000-0 +17312-4 0  9999
2 10461 082.9493 268.1177 0031872 277.5700 222.2472 13.76827527143467
Epoch (UTC): 02 July 2020 19:42:39
Eccentricity: 0.0031872
inclination: 82.9493°
perigee height: 952 km
apogee height: 998 km
right ascension of ascending node: 268.1177°
argument of perigee: 277.5700°
revolutions per day: 13.76827527
mean anomaly at epoch: 222.2472°
orbit number at epoch: 14346

The dashed part of the orbit path shows where the satellite is in the earth's shadow,  

DLR